sat.trackr.live / text

‹ back to catalog

STARLINK-31005

NORAD 58486 · 2023-186P

PAYLOAD ACTIVE UNKNOWN

§ Identity

Operator
Country
US
Launch date
2023-12-03
Launch site
AFETR
Launch vehicle
Mass (kg)
RCS (m²)

Purposes: comms

External: N2YO · Heavens-Above · Gunter

§ Orbital elements

Epoch: 2026-09-20T09:38:57.361056Z

Period
94.27 min
Inclination
43.0029°
Eccentricity
0.0001506
Mean motion
15.27573634 rev/d
Perigee alt
482.0 km
Apogee alt
484.1 km
Semi-major
6,861.2 km
B*
3.4040e-5
RAAN
44.1244°
Arg perigee
267.5613°
Mean anomaly
92.5066°
Rev number
15,566

§ Raw data

STARLINK-310051 58486U 23186P   26263.40205279  .00000674  00000+0  34040-4 0  99902 58486  43.0029  44.1244 0001506 267.5613  92.5066 15.27573634155666

JSON: /api/v1/satellites/58486 · /tle

For live sub-satellite position, see the globe view (requires WebGL).

§ Visibility from observer

Set your observer location to see the next 7 days of passes ≥ 10°. The values pass through the URL so the page stays shareable.

No JS? Fill the form by hand. The geolocation button needs JavaScript.